星链-4516 (STARLINK-4516 )

导读 | 星芒AI

STARLINK-4516 是 SpaceX Starlink 项目中的一颗低轨通信卫星,属于该星座的多个发射批次之一。该卫星旨在为全球用户提供高速互联网服务,支持偏远地区的网络接入。它运行在约 550 公里的轨道高度,配备先进通信设备,支持高频段数据传输。作为 Starlink 卫星群的一部分,STARLINK-4516 有助于构建全球覆盖的宽带网络,提升互联网的普及率和稳定性。

基本信息
目录编号:
53549
目录名称:
STARLINK-4516
国际标识:
2022-101Y
轨道中心:
EARTH
卫星名称:
星链-4516
卫星全名:
星链-4516 (STARLINK-4516 )
卫星状态:
已陨落 最后检测时间 2024-08-27
发射日期:
2022-08-19 UTC
国别 :
美国 (US)
星等 :
--
轨道信息
数据来源 国际轨道数据
星历时间: 2024-08-28T08:03:55+0800
轨道信息已过期438天
半长轴: 6553.482km
偏心率: 0.0007152
轨道倾角: 53.199°
近地点辐角 291.331°
升交点赤经 31.219°
平近点角 142.044°
近地点: 170.659km
远地点: 180.035km
周期: 87.997分钟
每日圈数: 16.364196
详细信息
固有亮度:
5
最大亮度:
2.5
卫星平台:
Starlink v1.5
覆盖范围:
全球
运营商:
太空探索技术公司
运营商所在国:
美国
制造商(研发单位):
太空探索技术公司
制造商所在国:
美国
使用方式:
暂无
卫星简介
星链(Starlink)计划是由太空探索技术公司(SpaceX)提出的一个巨型低轨卫星互联网星座项目,计划在2019年至2024年间在太空搭建由约1.2万颗卫星组成的“星链”网络,其中1584颗将部署在地球上空550千米处的近地轨道,并从2020年开始工作。该卫星仍在工作。